When you browse on this site, cookies collect data to enhance your experience and personalize the content and advertising you see.
Visit our Privacy Policy to learn more. By continuing to use the site, you agree to this use of cookies and data.
  • In Romania
  • List of Countries
  • For 7 days
  • Water Temperature
  • Satellite Maps
  • Weather Map
  • Weather Widgets
  • user-avatar
    Login

    Hourly Weather Arredondo

    Today, 18 February, Monday

    Time Temperature Precipitation Wind Pressure Humidity
    00:00 +7°C° 0 mm 3 mps 709 mmHg 54%
    01:00 +5°C° 0 mm 3 mps 709 mmHg 55%
    02:00 +6°C° 0 mm 2 mps 709 mmHg 56%
    03:00 +5°C° 0 mm 2 mps 709 mmHg 57%
    04:00 +5°C° 0 mm 2 mps 709 mmHg 60%
    05:00 +5°C° 0 mm 2 mps 709 mmHg 64%
    06:00 +4°C° 0 mm 2 mps 709 mmHg 67%
    07:00 +6°C° 0 mm 1 mps 709 mmHg 67%
    08:00 +7°C° 0 mm 1 mps 710 mmHg 66%
    09:00 +8°C° 0 mm 1 mps 710 mmHg 66%
    10:00 +10°C° 0 mm 1 mps 710 mmHg 61%
    11:00 +12°C° 0 mm 1 mps 710 mmHg 56%
    12:00 +15°C° 0 mm 1 mps 711 mmHg 47%
    13:00 +14°C° 0 mm 2 mps 710 mmHg 50%
    14:00 +14°C° 0 mm 2 mps 710 mmHg 52%
    15:00 +14°C° 0 mm 2 mps 710 mmHg 54%
    16:00 +12°C° 0 mm 2 mps 710 mmHg 68%
    17:00 +9°C° 0 mm 2 mps 710 mmHg 81%
    18:00 +7°C° 0 mm 2 mps 710 mmHg 94%
    19:00 +7°C° 0.5 mm 2 mps 710 mmHg 95%
    20:00 +7°C° 0.5 mm 2 mps 711 mmHg 96%
    21:00 +7°C° 0.5 mm 2 mps 711 mmHg 97%
    22:00 +7°C° 1.3 mm 2 mps 712 mmHg 98%
    23:00 +6°C° 1.3 mm 2 mps 712 mmHg 98%

    Tomorrow, 19 February, Tuesday

    Time Temperature Precipitation Wind Pressure Humidity
    00:00 +6°C° 1.3 mm 2 mps 712 mmHg 98%
    01:00 +6°C° 0.9 mm 2 mps 712 mmHg 98%
    02:00 +7°C° 0.9 mm 1 mps 712 mmHg 97%
    03:00 +6°C° 0.9 mm 1 mps 712 mmHg 97%
    04:00 +6°C° 0.4 mm 1 mps 712 mmHg 97%
    05:00 +6°C° 0.4 mm 1 mps 712 mmHg 97%
    06:00 +5°C° 0.4 mm 0 mps 712 mmHg 97%
    07:00 +5°C° 0 mm 0 mps 712 mmHg 96%
    08:00 +6°C° 0 mm 0 mps 712 mmHg 95%
    09:00 +6°C° 0 mm 0 mps 712 mmHg 93%
    10:00 +8°C° 0 mm 1 mps 712 mmHg 89%
    11:00 +9°C° 0 mm 1 mps 712 mmHg 86%
    12:00 +10°C° 0 mm 1 mps 712 mmHg 82%
    13:00 +10°C° 0 mm 1 mps 712 mmHg 79%
    14:00 +10°C° 0 mm 2 mps 712 mmHg 75%
    15:00 +12°C° 0 mm 2 mps 711 mmHg 72%
    16:00 +9°C° 0 mm 2 mps 711 mmHg 79%
    17:00 +9°C° 0 mm 1 mps 711 mmHg 86%
    18:00 +7°C° 0 mm 1 mps 711 mmHg 93%
    19:00 +7°C° 0 mm 1 mps 711 mmHg 94%
    20:00 +7°C° 0 mm 1 mps 711 mmHg 94%
    21:00 +7°C° 0 mm 1 mps 711 mmHg 94%
    22:00 +6°C° 0 mm 1 mps 711 mmHg 93%
    23:00 +6°C° 0 mm 1 mps 711 mmHg 92%

    Day after tomorrow, 20 February, Wednesday

    Time Temperature Precipitation Wind Pressure Humidity
    00:00 +6°C° 0 mm 1 mps 712 mmHg 90%
    01:00 +6°C° 0 mm 1 mps 711 mmHg 89%
    02:00 +6°C° 0 mm 1 mps 711 mmHg 89%
    03:00 +5°C° 0 mm 2 mps 711 mmHg 88%
    04:00 +4°C° 0 mm 2 mps 711 mmHg 88%
    05:00 +4°C° 0 mm 2 mps 711 mmHg 88%
    06:00 +4°C° 0 mm 2 mps 711 mmHg 88%
    07:00 +5°C° 0 mm 2 mps 712 mmHg 84%
    08:00 +7°C° 0 mm 1 mps 712 mmHg 80%
    09:00 +9°C° 0 mm 1 mps 713 mmHg 76%
    10:00 +11°C° 0 mm 1 mps 713 mmHg 68%
    11:00 +13°C° 0 mm 1 mps 713 mmHg 61%
    12:00 +15°C° 0 mm 1 mps 714 mmHg 53%
    13:00 +15°C° 0 mm 1 mps 713 mmHg 53%
    14:00 +15°C° 0 mm 1 mps 713 mmHg 54%
    15:00 +15°C° 0 mm 2 mps 713 mmHg 54%
    16:00 +13°C° 0 mm 1 mps 713 mmHg 64%
    17:00 +11°C° 0 mm 1 mps 713 mmHg 73%
    18:00 +9°C° 0 mm 1 mps 713 mmHg 83%
    19:00 +8°C° 0 mm 1 mps 713 mmHg 83%
    20:00 +8°C° 0 mm 1 mps 713 mmHg 83%
    21:00 +6°C° 0 mm 2 mps 714 mmHg 84%
    22:00 +6°C° 0 mm 2 mps 714 mmHg 82%
    23:00 +6°C° 0 mm 2 mps 714 mmHg 81%

    21 February, Thursday

    Time Temperature Precipitation Wind Pressure Humidity
    00:00 +6°C° 0 mm 2 mps 714 mmHg 80%
    01:00 +6°C° 0 mm 2 mps 714 mmHg 80%
    02:00 +6°C° 0 mm 2 mps 714 mmHg 80%
    03:00 +6°C° 0 mm 2 mps 714 mmHg 80%
    04:00 +6°C° 0 mm 2 mps 714 mmHg 81%
    05:00 +6°C° 0 mm 2 mps 714 mmHg 82%
    06:00 +6°C° 0 mm 2 mps 715 mmHg 83%
    07:00 +7°C° 0 mm 2 mps 715 mmHg 79%
    08:00 +8°C° 0 mm 2 mps 716 mmHg 75%
    09:00 +9°C° 0 mm 2 mps 716 mmHg 71%
    10:00 +12°C° 0 mm 2 mps 716 mmHg 64%
    11:00 +14°C° 0 mm 2 mps 717 mmHg 56%
    12:00 +17°C° 0 mm 2 mps 717 mmHg 49%
    13:00 +17°C° 0 mm 2 mps 717 mmHg 47%
    14:00 +17°C° 0 mm 2 mps 717 mmHg 46%
    15:00 +18°C° 0 mm 2 mps 717 mmHg 44%
    16:00 +16°C° 0 mm 2 mps 716 mmHg 52%
    17:00 +14°C° 0 mm 2 mps 716 mmHg 59%
    18:00 +10°C° 0 mm 2 mps 716 mmHg 67%
    19:00 +10°C° 0 mm 2 mps 717 mmHg 67%
    20:00 +9°C° 0 mm 2 mps 717 mmHg 67%
    21:00 +8°C° 0 mm 2 mps 718 mmHg 67%
    22:00 +8°C° 0 mm 2 mps 718 mmHg 66%
    23:00 +8°C° 0 mm 2 mps 718 mmHg 66%

    22 February, Friday

    Time Temperature Precipitation Wind Pressure Humidity
    00:00 +8°C° 0 mm 3 mps 718 mmHg 65%
    01:00 +7°C° 0 mm 2 mps 718 mmHg 65%
    02:00 +7°C° 0 mm 2 mps 718 mmHg 65%
    03:00 +7°C° 0 mm 2 mps 718 mmHg 65%
    04:00 +7°C° 0 mm 2 mps 718 mmHg 65%
    05:00 +6°C° 0 mm 2 mps 718 mmHg 65%
    06:00 +6°C° 0 mm 2 mps 718 mmHg 65%
    07:00 +7°C° 0 mm 2 mps 718 mmHg 62%
    08:00 +8°C° 0 mm 2 mps 719 mmHg 59%
    09:00 +10°C° 0 mm 2 mps 719 mmHg 57%
    10:00 +13°C° 0 mm 2 mps 719 mmHg 51%
    11:00 +15°C° 0 mm 2 mps 719 mmHg 46%
    12:00 +18°C° 0 mm 2 mps 719 mmHg 40%
    13:00 +18°C° 0 mm 2 mps 719 mmHg 39%
    14:00 +19°C° 0 mm 2 mps 719 mmHg 37%
    15:00 +19°C° 0 mm 2 mps 719 mmHg 36%
    16:00 +17°C° 0 mm 2 mps 718 mmHg 42%
    17:00 +15°C° 0 mm 2 mps 718 mmHg 49%
    18:00 +12°C° 0 mm 2 mps 717 mmHg 56%
    19:00 +12°C° 0 mm 2 mps 718 mmHg 55%
    20:00 +10°C° 0 mm 2 mps 718 mmHg 55%
    21:00 +9°C° 0 mm 2 mps 718 mmHg 54%
    22:00 +8°C° 0 mm 2 mps 718 mmHg 53%
    23:00 +8°C° 0 mm 2 mps 718 mmHg 53%

    23 February, Saturday

    Time Temperature Precipitation Wind Pressure Humidity
    00:00 +8°C° 0 mm 2 mps 718 mmHg 52%
    01:00 +8°C° 0 mm 2 mps 718 mmHg 52%
    02:00 +8°C° 0 mm 2 mps 718 mmHg 52%
    03:00 +7°C° 0 mm 2 mps 718 mmHg 52%
    04:00 +7°C° 0 mm 2 mps 718 mmHg 53%
    05:00 +7°C° 0 mm 2 mps 718 mmHg 53%
    06:00 +7°C° 0 mm 2 mps 718 mmHg 54%
    07:00 +8°C° 0 mm 2 mps 718 mmHg 52%
    08:00 +9°C° 0 mm 2 mps 718 mmHg 51%
    09:00 +12°C° 0 mm 2 mps 719 mmHg 49%
    10:00 +14°C° 0 mm 2 mps 719 mmHg 43%
    11:00 +17°C° 0 mm 2 mps 719 mmHg 38%
    12:00 +20°C° 0 mm 1 mps 720 mmHg 32%
    13:00 +20°C° 0 mm 1 mps 719 mmHg 32%
    14:00 +21°C° 0 mm 1 mps 719 mmHg 32%
    15:00 +21°C° 0 mm 1 mps 719 mmHg 32%
    16:00 +19°C° 0 mm 1 mps 719 mmHg 38%
    17:00 +15°C° 0 mm 1 mps 719 mmHg 45%
    18:00 +13°C° 0 mm 1 mps 719 mmHg 52%
    19:00 +12°C° 0 mm 1 mps 719 mmHg 52%
    20:00 +11°C° 0 mm 1 mps 719 mmHg 52%
    21:00 +9°C° 0 mm 2 mps 720 mmHg 52%
    22:00 +8°C° 0 mm 2 mps 720 mmHg 50%
    23:00 +8°C° 0 mm 2 mps 720 mmHg 49%
    Show more